Dansville, NY

11:01 PM EST on December 02, 2016 (GMT -0500)
Dansville Municipal

Weather History for KDSV - April, 2013

Change the Weather History Date:

Tuesday, April 16, 2013

  Actual Average Record
Temperature  
Mean Temperature 60 °F -  
Max Temperature 72 °F 59 °F 88 °F (2012)
Min Temperature 50 °F 36 °F 24 °F (1981)
Degree Days  
Heating Degree Days 4    
Growing Degree Days 10 (Base 50)    
Moisture  
Dew Point 49 °F    
Average Humidity 69    
Maximum Humidity 87    
Minimum Humidity 57    
Precipitation  
Precipitation 0.09 in - - ()
Sea Level Pressure  
Sea Level Pressure 30.11 in    
Wind  
Wind Speed 11 mph (SW)    
Max Wind Speed 17 mph    
Max Gust Speed 25 mph    
Visibility 10 miles    
Events Rain    
Averages and records for this station are not official NWS values.
T = Trace of Precipitation, MM = Missing Value Source: NWS Daily Summary

Daily Weather History Graph

Daily Weather History Graph

Search for Another Location

Airport or City:

Trip Planner

Search our weather history database for the weather conditions in past years. The results will help you decide how hot, cold, wet, or windy it might be!

Date:

Astronomy

Apr. 16, 2013 Rise Set
Actual Time 6:27 AM EDT 7:54 PM EDT
Civil Twilight 5:58 AM EDT 8:23 PM EDT
Nautical Twilight 5:22 AM EDT 8:59 PM EDT
Astronomical Twilight 4:45 AM EDT 9:36 PM EDT
Moon 10:41 AM EDT (4/16) 12:53 AM EDT (4/16)
Length of Visible Light 14h 25m
Length of Day
13h 26m
Waxing Crescent, 33% of the Moon is Illuminated
Apr 16
Waxing Crescent
Apr 18
First Quarter
Apr 25
Full
May 2
Last Quarter
May 9
New

Hourly Weather History & Observations

Time (EDT) Temp. Dew Point Humidity Pressure Visibility Wind Dir Wind Speed Gust Speed Precip Events Conditions
12:54 AM 59.0 °F 46.0 °F 62% 30.12 in 10.0 mi SE 8.1 mph - N/A   Partly Cloudy
1:54 AM 57.9 °F 46.0 °F 65% 30.11 in 10.0 mi SE 9.2 mph - N/A   Clear
2:54 AM 60.1 °F 46.9 °F 62% 30.10 in 10.0 mi SSE 10.4 mph - N/A   Overcast
3:54 AM 60.1 °F 48.0 °F 64% 30.10 in 10.0 mi SSE 15.0 mph 24.2 mph N/A   Overcast
4:54 AM 60.1 °F 48.0 °F 64% 30.07 in 10.0 mi SSE 11.5 mph 24.2 mph N/A   Partly Cloudy
5:54 AM 59.0 °F 48.0 °F 67% 30.07 in 10.0 mi SSE 13.8 mph - N/A   Overcast
6:54 AM 59.0 °F 48.0 °F 67% 30.07 in 10.0 mi SSE 17.3 mph 24.2 mph N/A   Scattered Clouds
8:54 AM 62.1 °F 50.0 °F 65% 30.06 in 10.0 mi SSE 15.0 mph 25.3 mph 0.00 in   Clear
9:54 AM 62.1 °F 51.1 °F 67% 30.06 in 9.0 mi South 12.7 mph 24.2 mph 0.00 in Rain Light Rain
10:54 AM 61.0 °F 52.0 °F 72% 30.07 in 10.0 mi South 12.7 mph 23.0 mph 0.01 in Rain Light Rain
11:54 AM 60.1 °F 55.0 °F 83% 30.11 in 10.0 mi SSE 6.9 mph - 0.06 in Rain Light Rain
12:54 PM 63.0 °F 55.0 °F 75% 30.06 in 10.0 mi South 12.7 mph - 0.00 in   Mostly Cloudy
1:54 PM 66.0 °F 55.9 °F 70% 30.04 in 10.0 mi South 5.8 mph - 0.00 in   Mostly Cloudy
2:54 PM 70.0 °F 55.0 °F 59% 30.02 in 10.0 mi SW 10.4 mph 21.9 mph N/A   Overcast
3:54 PM 71.1 °F 55.0 °F 57% 30.01 in 10.0 mi SW 8.1 mph - N/A   Overcast
4:54 PM 70.0 °F 55.9 °F 61% 30.01 in 10.0 mi SW 6.9 mph - N/A   Overcast
5:43 PM 60.8 °F 53.6 °F 77% 30.05 in 10.0 mi NNW 16.1 mph 25.3 mph N/A   Overcast
5:54 PM 61.0 °F 54.0 °F 78% 30.09 in 10.0 mi NW 16.1 mph 25.3 mph 0.00 in Rain Light Rain
6:54 PM 57.9 °F 54.0 °F 87% 30.12 in 10.0 mi NNW 9.2 mph - 0.01 in   Overcast
7:31 PM 57.2 °F 51.8 °F 82% 30.12 in 10.0 mi NW 12.7 mph 18.4 mph 0.01 in Rain Light Rain
7:54 PM 57.0 °F 50.0 °F 77% 30.15 in 10.0 mi North 3.5 mph - 0.01 in Rain Light Rain
8:54 PM 54.0 °F 45.0 °F 72% 30.20 in 10.0 mi NW 16.1 mph - 0.00 in   Overcast
9:54 PM 54.0 °F 45.0 °F 72% 30.22 in 10.0 mi WNW 3.5 mph - N/A   Overcast
10:54 PM 53.1 °F 45.0 °F 74% 30.25 in 10.0 mi NW 10.4 mph - N/A   Overcast
11:21 PM 50.0 °F 39.2 °F 66% 30.22 in 10.0 mi NNW 11.5 mph - N/A   Overcast
11:35 PM 50.0 °F 39.2 °F 66% 30.22 in 10.0 mi NNW 6.9 mph - N/A   Overcast
11:46 PM 50.0 °F 37.4 °F 62% 30.23 in 10.0 mi NNW 8.1 mph - N/A   Overcast
11:54 PM 50.0 °F 37.9 °F 63% 30.26 in 10.0 mi NW 5.8 mph - N/A   Overcast